TimeEDT,TemperatureF,Dew PointF,Humidity,Sea Level PressureIn,VisibilityMPH,Wind Direction,Wind SpeedMPH,Gust SpeedMPH,PrecipitationIn,Events,Conditions,WindDirDegrees,DateUTC
8:07 AM,73.4,71.6,94,29.98,0.5,SSW,13.8,28.8,N/A,Fog-Rain-Thunderstorm,Heavy Thunderstorms and Rain,200,2013-07-01 12:07:00
8:14 AM,73.4,71.6,94,29.98,1.0,SSW,6.9,23.0,N/A,Rain-Thunderstorm,Light Thunderstorms and Rain,210,2013-07-01 12:14:00
8:25 AM,73.4,71.6,94,29.98,1.2,SSW,6.9,-,N/A,Rain-Thunderstorm,Heavy Thunderstorms and Rain,210,2013-07-01 12:25:00
8:34 AM,73.4,71.6,94,29.97,2.0,SSW,5.8,-,N/A,Rain,Light Rain,210,2013-07-01 12:34:00
8:42 AM,73.4,71.6,94,29.97,6.0,SW,6.9,-,N/A,Rain,Light Rain,220,2013-07-01 12:42:00
8:56 AM,73.9,72.0,93,29.98,9.0,South,4.6,-,N/A,Rain,Light Rain,190,2013-07-01 12:56:00
9:56 AM,73.9,73.0,97,29.99,10.0,SSE,5.8,-,0.11,,Scattered Clouds,160,2013-07-01 13:56:00
10:29 AM,75.2,73.4,94,29.99,9.0,SSE,13.8,19.6,0.06,,Mostly Cloudy,160,2013-07-01 14:29:00
10:38 AM,75.2,73.4,94,29.99,1.0,South,10.4,19.6,0.08,Rain,Heavy Rain,180,2013-07-01 14:38:00
10:47 AM,73.4,71.6,94,29.99,2.0,South,10.4,-,0.10,Rain,Light Rain,190,2013-07-01 14:47:00
10:56 AM,73.9,72.0,93,29.99,4.0,South,9.2,-,0.12,Rain,Light Rain,180,2013-07-01 14:56:00
11:56 AM,77.0,73.9,90,29.99,8.0,South,5.8,-,0.14,,Mostly Cloudy,180,2013-07-01 15:56:00
12:43 PM,77.0,73.4,89,30.00,7.0,South,11.5,18.4,0.08,Rain,Light Rain,170,2013-07-01 16:43:00
12:51 PM,77.0,73.4,89,30.00,7.0,South,10.4,18.4,0.10,Rain,Light Rain,170,2013-07-01 16:51:00
12:56 PM,77.0,73.9,90,30.01,7.0,South,10.4,18.4,0.10,Rain,Light Rain,170,2013-07-01 16:56:00
1:56 PM,78.1,73.9,87,30.01,9.0,South,10.4,-,0.09,,Overcast,180,2013-07-01 17:56:00
2:27 PM,77.0,73.4,89,30.00,8.0,South,15.0,-,0.02,Rain,Light Rain,170,2013-07-01 18:27:00
2:54 PM,77.0,73.4,89,30.00,7.0,South,13.8,-,0.02,Rain,Light Rain,170,2013-07-01 18:54:00
2:56 PM,77.0,73.9,90,30.01,7.0,South,13.8,-,0.03,Rain,Light Rain,170,2013-07-01 18:56:00
3:46 PM,75.2,73.4,94,30.01,9.0,South,11.5,18.4,0.02,Rain,Light Rain,180,2013-07-01 19:46:00
4:30 PM,75.2,73.4,94,30.01,7.0,South,6.9,21.9,0.00,Rain,Light Rain,190,2013-07-01 20:30:00
4:56 PM,75.0,73.0,94,30.02,8.0,South,9.2,17.3,0.00,Rain,Light Rain,180,2013-07-01 20:56:00
5:15 PM,75.2,73.4,94,30.01,8.0,South,6.9,-,0.01,Rain,Light Rain,190,2013-07-01 21:15:00
5:56 PM,75.0,72.0,90,30.01,10.0,South,9.2,-,0.01,,Mostly Cloudy,180,2013-07-01 21:56:00
6:56 PM,75.0,73.0,94,30.03,10.0,South,8.1,-,0.00,Rain,Light Rain,170,2013-07-01 22:56:00
7:31 PM,75.2,73.4,94,30.03,9.0,South,10.4,-,0.00,,Mostly Cloudy,180,2013-07-01 23:31:00
8:56 PM,75.0,72.0,90,30.05,10.0,South,8.1,-,N/A,,Clear,180,2013-07-02 00:56:00
10:02 PM,75.2,73.4,94,30.07,1.8,South,9.2,-,N/A,,Clear,180,2013-07-02 02:02:00
10:07 PM,75.2,73.4,94,30.07,3.0,South,8.1,-,N/A,,Clear,180,2013-07-02 02:07:00
10:34 PM,75.2,73.4,94,30.08,1.5,South,8.1,-,N/A,,Clear,170,2013-07-02 02:34:00
10:49 PM,75.2,73.4,94,30.07,10.0,South,8.1,-,N/A,,Partly Cloudy,170,2013-07-02 02:49:00
10:56 PM,75.9,73.0,91,30.08,3.0,South,9.2,-,N/A,,Partly Cloudy,180,2013-07-02 02:56:00
11:56 PM,75.9,73.0,91,30.09,9.0,South,9.2,-,0.00,Rain,Light Rain,190,2013-07-02 03:56:00